Location: Unspecified
(0.0000°N, 0.0000°E)
Time: 20:54:25
(UTC+00:00)

Hubble Space Telescope - Pass Details

Date: 26 January 2020
Orbit: 536 x 540 km, 28.5° (Epoch: 24 February)

Event Time Altitude Azimuth Distance (km) Brightness Sun altitude
Exits shadow 04:35:44 41° 21° (NNE) 781 1.5 -22.8°
Drops below altitude 10° 04:38:41 10° 48° (NE) 1,773 3.7 -22.1°
Sets 04:40:58 0° 52° (NE) 2,662 4.8 -21.6°
